Content
SEND FEEDBACK

Daily
Averages
Monthly
Summary
Philippines

BOOT, PHILIPPINES


Home > Asia > Philippines
Elevation: 36 feet     Latitude: 14 04N     Longitude: 121 03E

WEATHER
 
SELECT A DAY
Number of Records: 172,482;   Date Range: 7/1/96 - 7/26/14
 
SHARE

PRINT THIS DATA

[ ← Previous Day ]
WEATHER ALMANAC - JULY 6, 2013
[ Next Day → ]
[ °C ]   °F
Weather ElementAverageHighLow
Temperature85.1 °F91.4 °F (3:00 pm)78.8 °F (4:00 am)
Dewpoint74.8 °F80 °F (11:00 am)73.4 °F (8:00 am)
Humidity71 %94 % (5:00 am)52 % (5:00 pm)
Barometer29.83 in29.89 in (10:00 pm)29.77 in (2:00 pm)
Wind Speed6.4 mph10.4 mph (1:00 pm)
Weather ElementAverage
Visibility6.1 mi
Wind DirectionESE (103.4 °)

Weather ElementTotal
Precipitation---
Cooling Degree Days20.1 (Base 65)
Growing Degree Days35.1 (Base 50)
Averaged from 29 records on July 6, 2013
WEATHER CONDITIONS BREAKOUT
WIND DIRECTION BREAKOUT
WEATHER BY HOUR - JULY 6, 2013
[ °C ]   °F
Local TimeTemperatureDewpointHumidityBarometerVisibilityWind DirectionWind SpeedGust SpeedPrecipitationEventsConditions
1:00 AM80.6 °F75.2 °F84 %29.86 in6.2 miNorth (350°)6.9 mphMostly Cloudy
2:00 AM80.6 °F75.2 °F84 %29.83 in6.2 miNorth (10°)4.6 mphMostly Cloudy
3:00 AM80.6 °F75.2 °F84 %29.83 in5.6 miCalmRainLight Rain Showers
4:00 AM78.8 °F75.2 °F89 %29.80 in5.6 miSW (230°)3.5 mphRainLight Rain
5:00 AM79.0 °F77.0 °F92 %29.83 in6.0 miESE (120°)2.2 mphRainLight Rain
5:00 AM78.8 °F77.0 °F94 %29.83 in5.6 miVariable2.3 mphRainLight Rain
6:00 AM78.8 °F77.0 °F94 %29.83 in6.2 miVariable1.2 mphScattered Clouds
7:00 AM80.6 °F77.0 °F89 %29.86 in6.2 miENE (70°)3.5 mphScattered Clouds
8:00 AM85.0 °F74.0 °F63 %29.87 in6.0 miEast (100°)4.5 mphHaze
8:00 AM84.2 °F73.4 °F70 %29.86 in6.2 miESE (120°)3.5 mphScattered Clouds
9:00 AM86.0 °F73.4 °F66 %29.86 in6.2 miESE (120°)8.1 mphScattered Clouds
10:00 AM87.8 °F73.4 °F62 %29.86 in6.2 miESE (110°)6.9 mphScattered Clouds
11:00 AM89.0 °F80.0 °F69 %29.86 in6.0 miEast (90°)6.7 mphScattered Clouds
11:00 AM89.6 °F75.2 °F62 %29.83 in6.2 miEast (90°)6.9 mphPartly Cloudy
12:00 PM89.6 °F75.2 °F62 %29.83 in6.2 miVariable8.1 mphPartly Cloudy
1:00 PM89.6 °F73.4 °F59 %29.80 in6.2 miESE (110°)10.4 mphPartly Cloudy
2:00 PM89.6 °F73.4 °F59 %29.77 in6.2 miSE (130°)9.2 mphPartly Cloudy
3:00 PM91.4 °F73.4 °F55 %29.77 in6.2 miESE (120°)10.4 mphScattered Clouds
4:00 PM91.4 °F75.2 °F59 %29.77 in6.2 miESE (110°)10.4 mphScattered Clouds
5:00 PM89.0 °F74.0 °F52 %29.78 in6.0 miEast (100°)8.9 mphHaze
5:00 PM89.6 °F73.4 °F59 %29.77 in6.2 miEast (100°)9.2 mphMostly Cloudy
6:00 PM87.8 °F73.4 °F62 %29.77 in6.2 miEast (100°)10.4 mphMostly Cloudy
7:00 PM86.0 °F73.4 °F66 %29.80 in6.2 miESE (120°)10.4 mphMostly Cloudy
8:00 PM85.0 °F74.0 °F63 %29.85 in6.0 miESE (110°)6.7 mphHaze
8:00 PM86.0 °F73.4 °F66 %29.83 in6.2 miESE (110°)6.9 mphScattered Clouds
9:00 PM84.2 °F75.2 °F74 %29.86 in6.2 miESE (110°)8.1 mphMostly Cloudy
10:00 PM84.2 °F75.2 °F74 %29.89 in6.2 miESE (110°)6.9 mphMostly Cloudy
11:00 PM83.0 °F74.0 °F69 %29.89 in6.0 miSE (130°)4.5 mphHaze
11:00 PM82.4 °F75.2 °F79 %29.89 in6.2 miSE (130°)3.5 mphMostly Cloudy
Hourly data recorded from RPLL, located miles away from Boot, Philippines







STORIES FROM OUR PARTNERS